Regional Weather Roundup
Issued by NWS

Home | Current Version | Previous Version | Graphics & Text | Print | Product List | Glossary Off
Versions: 1 2 3 4 5 6 7 8 9 10 11 12 13 14 15 16 17 18 19 20 21 22 23 24 25 26 27 28 29 30 31 32 33 34 35 36 37 38 39 40 41 42 43 44 45 46 47 48 49 50

555
ASUS43 KTOP 290059
RWRKS

WEATHER ROUNDUP FOR KANSAS
NATIONAL WEATHER SERVICE GOODLAND KS
800 PM CDT THU APR 28 2016

NOTE:  "FAIR" INDICATES FEW OR NO CLOUDS BELOW 12,000 FEET WITH NO
SIGNIFICANT WEATHER AND/OR OBSTRUCTIONS TO VISIBILITY.

KSZ001>006-013>018-027>032-041>047-290200-
NORTHWEST KANSAS

CITY           SKY/WX    TMP DP  RH WIND       PRES   REMARKS
GOODLAND       CLOUDY    48  37  65 NE10      30.01S
HAYS           MOCLDY    55  37  50 NE7       30.01R
HILL CITY      MOCLDY    53  41  63 NE10      30.03R
RUSSELL        PTCLDY    56  43  61 NE9       29.99R
$$

KSZ061>065-074>080-084>089-290200-
SOUTHWEST KANSAS

CITY           SKY/WX    TMP DP  RH WIND       PRES   REMARKS
DODGE CITY     CLOUDY    57  38  48 NE13      29.96S
ELKHART          N/A     59  39  47 NE17        N/A
GARDEN CITY    MOCLDY    57  37  47 NE15      29.96S
GREAT BEND     CLEAR     57  43  58 NE8       29.99R
LIBERAL        CLOUDY    61  37  41 E13G21    29.91S
$$

KSZ066>073-081>083-090>101-290200-
SOUTHEAST KANSAS

CITY           SKY/WX    TMP DP  RH WIND       PRES   REMARKS
CHANUTE        CLOUDY    62  49  62 NE7       29.96F
COFFEYVILLE    CLEAR     64  51  62 E6        29.94F
HUTCHINSON     CLOUDY    61  45  55 NE7       29.98R
MEDICINE LODGE   N/A     61  46  57 E6        29.95R
NEWTON         MOCLDY    59  43  55 NE5       29.99R
PARSONS        PTCLDY    64  52  64 CALM      29.96F
WICHITA INTL   MOCLDY    64  46  52 NE9       29.96R
WICHITA JABRA  PTCLDY    60  49  66 NE5       29.96R
WINFIELD       PTCLDY    65  47  52 NE5       29.95R
$$

KSZ007>012-019>026-033>040-048>060-102>105-290200-
NORTHEAST KANSAS

CITY           SKY/WX    TMP DP  RH WIND       PRES   REMARKS
CONCORDIA      CLOUDY    52  43  71 N10       30.01S
EMPORIA        PTCLDY    59  48  67 NE6       29.97S
LAWRENCE       CLEAR     55  46  71 NE8       30.01R
MANHATTAN      MOCLDY    56  44  64 NE7       30.00R
OLATHE IND     CLEAR     54  47  77 N8        30.01S
OLATHE EXE     CLEAR     56  45  66 N9        30.00S
SALINA         CLEAR     59  44  57 NE9       30.00R
TOPEKA BILLARD CLEAR     55  45  68 N8        30.00S
TOPEKA FORBES  CLEAR     58  47  66 N8        29.99S
$$




USA.gov is the U.S. government's official web portal to all federal, state and local government web resources and services.